Broomfield, CO

9:43 PM MDT on May 25, 2017 (GMT -0600)
Jeffco

Weather History for KBJC - May, 2013

Change the Weather History Date:

Monday, May 6, 2013

  Actual Average Record
Temperature  
Mean Temperature 52 °F -  
Max Temperature 64 °F 64 °F 86 °F (2004)
Min Temperature 41 °F 42 °F 16 °F (1988)
Degree Days  
Heating Degree Days 12    
Growing Degree Days 2 (Base 50)    
Moisture  
Dew Point 30 °F    
Average Humidity 50    
Maximum Humidity 70    
Minimum Humidity 24    
Precipitation  
Precipitation 0.00 in - - ()
Sea Level Pressure  
Sea Level Pressure 30.04 in    
Wind  
Wind Speed 3 mph (NW)    
Max Wind Speed 14 mph    
Max Gust Speed 16 mph    
Visibility 12 miles    
Events      
Averages and records for this station are not official NWS values.
T = Trace of Precipitation, MM = Missing Value Source: NWS Daily Summary

Daily Weather History Graph

Daily Weather History Graph

Search for Another Location

Airport or City:

Trip Planner

Search our weather history database for the weather conditions in past years. The results will help you decide how hot, cold, wet, or windy it might be!

Date:

Astronomy

May. 06, 2013 Rise Set
Actual Time 5:54 AM MDT 8:00 PM MDT
Civil Twilight 5:24 AM MDT 8:30 PM MDT
Nautical Twilight 4:48 AM MDT 9:06 PM MDT
Astronomical Twilight 4:08 AM MDT 9:46 PM MDT
Moon 3:57 AM MDT (5/6) 5:03 PM MDT (5/6)
Length of Visible Light 15h 05m
Length of Day
14h 05m
Waning Crescent, 10% of the Moon is Illuminated
May 6
Waning Crescent
May 9
New
May 17
First Quarter
May 24
Full
May 31
Last Quarter

Hourly Weather History & Observations

Time (MDT) Temp. Windchill Dew Point Humidity Pressure Visibility Wind Dir Wind Speed Gust Speed Precip Events Conditions
12:15 AM 44.6 °F - 32.0 °F 61% 30.12 in 10.0 mi Calm Calm - N/A   Scattered Clouds
12:35 AM 44.6 °F 42.2 °F 32.0 °F 61% 30.12 in 10.0 mi WSW 4.6 mph - N/A   Scattered Clouds
12:54 AM 44.6 °F 41.4 °F 32.0 °F 61% 30.11 in 10.0 mi SSW 5.8 mph - N/A   Clear
1:15 AM 44.6 °F - 32.0 °F 61% 30.10 in 10.0 mi Calm Calm - N/A   Clear
1:35 AM 44.6 °F - 30.2 °F 57% 30.10 in 10.0 mi Calm Calm - N/A   Clear
1:55 AM 44.6 °F - 30.2 °F 57% 30.08 in 10.0 mi Calm Calm - N/A   Scattered Clouds
2:15 AM 44.6 °F 41.4 °F 30.2 °F 57% 30.07 in 10.0 mi SE 5.8 mph - N/A   Scattered Clouds
2:35 AM 42.8 °F 40.1 °F 32.0 °F 66% 30.06 in 10.0 mi SE 4.6 mph - N/A   Mostly Cloudy
2:55 AM 42.8 °F - 30.2 °F 61% 30.06 in 10.0 mi Calm Calm - N/A   Mostly Cloudy
3:15 AM 42.8 °F - 30.2 °F 61% 30.06 in 10.0 mi Calm Calm - N/A   Scattered Clouds
3:35 AM 41.0 °F - 30.2 °F 65% 30.05 in 10.0 mi Calm Calm - N/A   Clear
3:55 AM 41.0 °F 38.0 °F 30.2 °F 65% 30.05 in 10.0 mi West 4.6 mph - N/A   Clear
4:15 AM 42.8 °F - 30.2 °F 61% 30.05 in 10.0 mi Calm Calm - N/A   Clear
4:35 AM 42.8 °F - 30.2 °F 61% 30.05 in 10.0 mi Calm Calm - N/A   Clear
4:55 AM 44.6 °F - 30.2 °F 57% 30.05 in 10.0 mi Calm Calm - N/A   Clear
5:14 AM 42.8 °F 38.6 °F 32.0 °F 66% 30.05 in 10.0 mi NNW 6.9 mph - N/A   Clear
5:35 AM 42.8 °F 37.0 °F 32.0 °F 66% 30.05 in 10.0 mi NW 10.4 mph - N/A   Clear
5:55 AM 41.0 °F 33.5 °F 32.0 °F 70% 30.04 in 10.0 mi NNW 13.8 mph - N/A   Clear
6:55 AM 42.8 °F 38.0 °F 30.2 °F 61% 30.07 in 40.0 mi North 8.1 mph - N/A   Mostly Cloudy
7:45 AM 42.8 °F 38.0 °F 30.2 °F 61% 30.08 in 30.0 mi North 8.1 mph - N/A   Mostly Cloudy
8:47 AM 46.4 °F 42.4 °F 30.2 °F 53% 30.09 in 30.0 mi NNE 8.1 mph - N/A   Mostly Cloudy
9:45 AM 51.8 °F - 30.2 °F 44% 30.08 in 30.0 mi North 8.1 mph - N/A   Scattered Clouds
10:45 AM 55.4 °F - 28.4 °F 36% 30.08 in 30.0 mi NW 6.9 mph - N/A   Scattered Clouds
11:50 AM 57.2 °F - 26.6 °F 31% 30.06 in 15.0 mi NW 9.2 mph - N/A   Overcast
12:56 PM 60.8 °F - 28.4 °F 29% 30.04 in 15.0 mi North 6.9 mph - N/A   Overcast
1:46 PM 62.6 °F - 28.4 °F 27% 30.01 in 15.0 mi North 8.1 mph 16.1 mph N/A   Overcast
2:47 PM 64.4 °F - 26.6 °F 24% 30.01 in 15.0 mi NNE 4.6 mph - N/A   Mostly Cloudy
3:47 PM 62.6 °F - 26.6 °F 26% 29.99 in 15.0 mi WNW 8.1 mph - N/A   Mostly Cloudy
4:51 PM 62.6 °F - 28.4 °F 27% 29.97 in 20.0 mi West 8.1 mph - N/A   Mostly Cloudy
5:53 PM 62.6 °F - 26.6 °F 26% 29.96 in 20.0 mi Variable 4.6 mph - N/A   Overcast
6:46 PM 62.6 °F - 28.4 °F 27% 29.95 in 25.0 mi NW 6.9 mph - N/A   Mostly Cloudy
7:47 PM 59.0 °F - 30.2 °F 34% 29.95 in 25.0 mi Calm Calm - N/A   Mostly Cloudy
8:49 PM 57.2 °F - 32.0 °F 38% 29.95 in 25.0 mi West 3.5 mph - N/A   Mostly Cloudy
9:53 PM 55.4 °F - 33.8 °F 44% 29.96 in 25.0 mi Calm Calm - N/A   Mostly Cloudy
11:15 PM 51.8 °F - 32.0 °F 47% 29.96 in 10.0 mi Calm Calm - N/A   Clear
11:35 PM 51.8 °F - 33.8 °F 50% 29.95 in 10.0 mi Calm Calm - N/A   Mostly Cloudy
11:54 PM 50.0 °F - 33.8 °F 54% 29.95 in 10.0 mi Calm Calm - N/A   Scattered Clouds